TimeEDT,TemperatureF,Dew PointF,Humidity,Sea Level PressureIn,VisibilityMPH,Wind Direction,Wind SpeedMPH,Gust SpeedMPH,PrecipitationIn,Events,Conditions,WindDirDegrees,DateUTC
12:53 AM,28.9,10.0,45,29.92,10.0,Calm,Calm,-,N/A,,Clear,0,2013-03-17 04:53:00
1:53 AM,27.0,12.0,53,29.94,10.0,Calm,Calm,-,N/A,,Clear,0,2013-03-17 05:53:00
2:53 AM,25.0,12.9,60,29.94,10.0,Calm,Calm,-,N/A,,Clear,0,2013-03-17 06:53:00
3:53 AM,24.1,14.0,65,29.95,10.0,Calm,Calm,-,N/A,,Clear,0,2013-03-17 07:53:00
4:53 AM,24.1,12.0,60,29.96,10.0,Calm,Calm,-,N/A,,Clear,0,2013-03-17 08:53:00
5:53 AM,23.0,14.0,68,29.98,10.0,Calm,Calm,-,N/A,,Partly Cloudy,0,2013-03-17 09:53:00
6:53 AM,21.9,12.9,68,29.98,10.0,Calm,Calm,-,N/A,,Clear,0,2013-03-17 10:53:00
7:53 AM,25.0,10.9,55,30.04,10.0,NW,9.2,-,N/A,,Clear,310,2013-03-17 11:53:00
8:53 AM,27.0,8.1,45,30.06,10.0,WNW,5.8,-,N/A,,Clear,290,2013-03-17 12:53:00
9:53 AM,28.9,7.0,40,30.05,10.0,NW,13.8,23.0,N/A,,Clear,310,2013-03-17 13:53:00
10:53 AM,30.0,7.0,38,30.08,10.0,WNW,18.4,24.2,N/A,,Mostly Cloudy,290,2013-03-17 14:53:00
11:53 AM,32.0,6.1,34,30.09,10.0,NW,13.8,20.7,N/A,,Partly Cloudy,320,2013-03-17 15:53:00
12:53 PM,33.1,3.0,28,30.09,10.0,WNW,17.3,24.2,N/A,,Mostly Cloudy,290,2013-03-17 16:53:00
1:53 PM,34.0,-0.0,24,30.09,10.0,NNW,21.9,28.8,N/A,,Mostly Cloudy,340,2013-03-17 17:53:00
2:53 PM,33.1,-0.0,24,30.09,10.0,NW,13.8,24.2,N/A,,Clear,310,2013-03-17 18:53:00
3:53 PM,35.1,1.0,24,30.11,10.0,NW,10.4,24.2,N/A,,Clear,310,2013-03-17 19:53:00
4:53 PM,33.1,1.9,27,30.13,10.0,WNW,13.8,25.3,N/A,,Clear,300,2013-03-17 20:53:00
5:53 PM,33.1,1.0,26,30.16,10.0,NW,13.8,21.9,N/A,,Clear,310,2013-03-17 21:53:00
6:53 PM,30.9,1.0,28,30.19,10.0,NW,12.7,19.6,N/A,,Clear,310,2013-03-17 22:53:00
7:53 PM,30.0,3.0,32,30.24,10.0,NNW,9.2,-,N/A,,Clear,340,2013-03-17 23:53:00
8:53 PM,28.0,1.0,31,30.29,10.0,NNW,12.7,-,N/A,,Clear,340,2013-03-18 00:53:00
9:53 PM,26.1,-0.0,32,30.31,10.0,NNW,8.1,-,N/A,,Clear,330,2013-03-18 01:53:00
10:53 PM,24.1,-0.9,34,30.35,10.0,NNW,9.2,16.1,N/A,,Clear,330,2013-03-18 02:53:00
11:53 PM,23.0,-2.0,34,30.36,10.0,NNW,10.4,21.9,N/A,,Clear,330,2013-03-18 03:53:00